Location: Unspecified
(0.0000°N, 0.0000°E)
Time: 18:59:31
(UTC+00:00)

Tiangong 2 - Pass Details

Date: 10 December 2018
Orbit: 382 x 392 km, 42.8° (Epoch: 09 December)

Event Time Altitude Azimuth Distance (km) Brightness Sun altitude
Rises 19:04:34 0° 219° (SW) 2,252 6.1 -16.5°
Reaches altitude 10° 19:06:39 10° 215° (SW) 1,396 4.8 -16.9°
Maximum altitude 19:09:46 59° 135° (SE) 444 1.2 -17.6°
Enters shadow 19:10:02 55° 106° (ESE) 459 1.1 -17.7°
